Home   Weather   Temuco   Past weeks

Flag for Chile Past Weather in Temuco, Chile — Yesterday and Last 2 Weeks

Now
59 °F

Passing clouds.


Feels Like: 59 °F
Forecast: 53 / 61 °F
Wind: 5 mph from Southwest

Location: Concepcion Airport

Current Time: Dec 10, 2016 at 4:00:57 am

Latest Report: Dec 10, 2016 at 3:00 am


Visibility: N/A

Pressure: 30.12 "Hg

Humidity: 82%

Dew Point: 54 °F

Location of TemucoLocation

Past Weather in Temuco — Graph

°F

Temuco Temperature Yesterday

Maximum temperature yesterday: 68 °F (at 4:00 pm)
Minimum temperature yesterday: 59 °F (at 12:00 am)
Average temperature yesterday: 62 °F

High & Low Weather Summary for the Past Weeks

 TemperatureHumidityPressure
High90 °F (Nov 29, 4:00 pm)100% (Nov 27, 7:00 am)30.18 "Hg (Nov 27, 7:00 am)
Low48 °F (Dec 5, 7:00 am)26% (Nov 29, 4:00 pm)29.77 "Hg (Nov 29, 7:00 pm)
Average62 °F76%30.00 "Hg
* Reported Nov 25 2:00 am — Dec 10 2:00 am, Temuco, Weather by CustomWeather, © 2016

Note: Actual official high and low records may vary slightly from our data, if they occured in-between our weather recording intervals... More about our weather records

Advertising

Temuco Weather History for the Previous 24 Hours

Scroll right to see more
 ConditionsComfort  
Time TempWeatherWind HumidityBarometerVisibility
2:00 am
Sat, Dec 10
59 °FPassing clouds.2 mph88%30.15 "HgN/A
1:00 am61 °FPassing clouds.3 mph77%30.15 "HgN/A
12:00 am61 °FPassing clouds.5 mph77%30.15 "HgN/A
11:00 pm
Fri, Dec 9
61 °FPartly cloudy.5 mph77%30.12 "HgN/A
10:00 pm61 °FPartly cloudy.3 mph83%30.12 "HgN/A
9:00 pm61 °FBroken clouds.6 mph83%30.12 "HgN/A
8:00 pm63 °FPartly sunny.7 mph77%30.09 "HgN/A
7:00 pm64 °FBroken clouds.7 mph73%30.07 "HgN/A
6:00 pm64 °FPartly sunny.9 mph68%30.07 "HgN/A
5:00 pm66 °FScattered clouds.12 mph64%30.07 "HgN/A
4:00 pm68 °FScattered clouds.13 mph60%30.07 "HgN/A
3:00 pm66 °FScattered clouds.13 mph68%30.07 "HgN/A
2:00 pm66 °FPartly sunny.14 mph68%30.09 "HgN/A
1:00 pm64 °FBroken clouds.12 mph73%30.09 "HgN/A
12:00 pm63 °FBroken clouds.15 mph73%30.09 "HgN/A
11:00 am61 °FOvercast.14 mph77%30.09 "HgN/A
10:00 am61 °FOvercast.14 mph77%30.07 "HgN/A
9:00 am61 °FOvercast.14 mph77%30.07 "HgN/A
8:00 am59 °FOvercast.14 mph82%30.04 "HgN/A
7:00 am59 °FOvercast.10 mph88%30.01 "HgN/A
6:00 am59 °FOvercast.10 mph88%29.98 "HgN/A
5:00 am59 °FOvercast.10 mph88%29.95 "HgN/A
4:00 am59 °FPassing clouds.9 mph88%29.92 "HgN/A
Weather by CustomWeather, © 2016

See weather overviewHow to use our weather pages